Location: Park Creek Village Mobile Home Park
(38.2885°N, 122.4714°W)
Time: 19:42:38
(UTC+00:00)

Cosmos 1674 Rocket - Pass Details

Date: 14 December 2019
Orbit: 602 x 631 km, 82.5° (Epoch: 21 January)

Event Time Altitude Azimuth Distance (km) Brightness Sun altitude
Rises 14:06:21 0° 353° (N) 2,870 6.7 -13.8°
Reaches altitude 10° 14:08:35 10° 354° (N) 1,959 5.9 -13.4°
Maximum altitude 14:12:55 84° 83° (E) 612 3.6 -12.6°
Drops below altitude 10° 14:17:12 10° 172° (S) 1,938 6.5 -11.8°
Sets 14:19:24 0° 173° (S) 2,837 7.4 -11.4°
